[Iaude] MPEC E35: 2019 EG [a=1.28,e=0.40,i=33.9,H=22.2]

mpec at mpcdb1.cfa.harvard.edu mpec at mpcdb1.cfa.harvard.edu
Sun Mar 3 19:57:17 EST 2019


M.P.E.C. 2019-E35                                Issued 2019 Mar. 4, 00:53 UT
 
     The Minor Planet Electronic Circulars contain information on unusual
         minor planets and routine data on comets.  They are published
    on behalf of Division F of the International Astronomical Union by the
          Minor Planet Center, Smithsonian Astrophysical Observatory,
                          Cambridge, MA 02138, U.S.A.

             Prepared using the Tamkin Foundation Computer Network

                              MPC at CFA.HARVARD.EDU
            URL https://www.minorplanetcenter.net/    ISSN 1523-6714


                                    2019 EG
 
Observations:
     K19E00G* C2019 03 01.41709 13 51 53.36 -06 04 43.0          17.9 GVEE035703
     K19E00G  C2019 03 01.42232 13 51 44.20 -06 06 23.4          17.9 GVEE035703
     K19E00G  C2019 03 01.42754 13 51 35.01 -06 08 04.3          18.0 GVEE035703
     K19E00G  C2019 03 01.44454 13 51 05.31 -06 13 31.0          18.4 GVEE035703
     K19E00G  C2019 03 01.49866 13 49 30.30 -06 30 50.2          17.8 GVEE035I52
     K19E00G  C2019 03 01.49905 13 49 29.62 -06 30 56.5          17.6 GVEE035I52
     K19E00G  C2019 03 01.49944 13 49 28.70 -06 31 07.1          17.9 GVEE035I52
     K19E00G  C2019 03 01.49983 13 49 28.02 -06 31 14.6          17.8 GVEE035I52
     K19E00G KC2019 03 01.61781 13 46 09.79 -07 06 27.1          18.0 GVEE035474
     K19E00G KC2019 03 01.61868 13 46 08.25 -07 06 43.8          18.2 GVEE035474
     K19E00G KC2019 03 01.61956 13 46 06.71 -07 07 00.5          17.9 GVEE035474
     K19E00G KC2019 03 01.62000 13 46 05.95 -07 07 08.7          18.3 GVEE035474
     K19E00G KC2019 03 02.00558 13 35 08.73 -09 11 01.9          17.7 GVEE035203
     K19E00G KC2019 03 02.01275 13 34 56.26 -09 13 15.8          18.6 GVEE035203
     K19E00G KC2019 03 02.01997 13 34 43.78 -09 15 29.3          17.7 GVEE035203
     K19E00G KC2019 03 02.07496813 33 08.60 -09 32 27.9          17.9 GVEE035C95
     K19E00G KC2019 03 02.07968313 33 00.36 -09 33 54.4          17.9 GVEE035C95
     K19E00G KC2019 03 02.08284 13 32 54.11 -09 34 56.0          17.7 GVEE035595
     K19E00G KC2019 03 02.08439913 32 52.20 -09 35 22.2          17.8 GVEE035C95
     K19E00G KC2019 03 02.08628 13 32 48.14 -09 35 59.6          18.0 GVEE035595
     K19E00G KC2019 03 02.08912313 32 43.98 -09 36 49.7          17.9 GVEE035C95
     K19E00G KC2019 03 02.08971 13 32 42.18 -09 37 02.7          18.2 GVEE035595
     K19E00G HC2019 03 02.09168 13 32 39.23 -09 37 39.1                VEE035204
     K19E00G KC2019 03 02.09433 13 32 34.63 -09 38 27.8          18.0 GVEE035204
     K19E00G KC2019 03 02.09698 13 32 30.03 -09 39 16.7                VEE035204
     K19E00G  C2019 03 02.11164613 32 04.08 -09 43 46.2          17.8 GVEE035L01
     K19E00G  C2019 03 02.11184013 32 03.74 -09 43 49.7          18.0 GVEE035L01
     K19E00G  C2019 03 02.11225413 32 03.02 -09 43 57.4          18.0 GVEE035L01
     K19E00G  C2019 03 02.11244913 32 02.68 -09 44 01.3          18.0 GVEE035L01
     K19E00G  C2019 03 02.11303213 32 01.67 -09 44 11.8          18.1 GVEE035L01
     K19E00G KC2019 03 02.14356 13 31 16.54 -09 51 06.7          17.8 GVEE035I19
     K19E00G KC2019 03 02.14594813 31 04.58 -09 54 16.5          18.1 GVEE035L01
     K19E00G KC2019 03 02.14694 13 31 10.73 -09 52 09.2          17.9 GVEE035I19
     K19E00G KC2019 03 02.14753213 31 01.84 -09 54 45.8          18.0 GVEE035L01
     K19E00G KC2019 03 02.14911613 30 59.09 -09 55 14.6          18.0 GVEE035L01
     K19E00G KC2019 03 02.15042 13 31 04.71 -09 53 13.4          18.0 GVEE035I19
     K19E00G KC2019 03 02.15093213 30 55.94 -09 55 48.0          17.8 GVEE035L01
     K19E00G KC2019 03 02.15252113 30 53.21 -09 56 17.1          18.0 GVEE035L01
     K19E00G  C2019 03 02.52775013 20 22.21 -11 48 28.1          17.84oVEE035T08
     K19E00G  C2019 03 02.53690013 20 06.34 -11 51 09.9          17.61oVEE035T08
     K19E00G  C2019 03 02.54603413 19 50.60 -11 53 51.7          17.55oVEE035T08
     K19E00G  C2019 03 02.55627113 19 32.93 -11 56 51.4          17.76oVEE035T08
     K19E00G KC2019 03 02.59798013 18 24.94 -12 07 03.9          18.5 GVEE035474
     K19E00G KC2019 03 02.60344313 18 15.65 -12 08 39.7          18.6 GVEE035474
     K19E00G KC2019 03 02.60455513 18 13.72 -12 08 59.2          18.3 GVEE035474
     K19E00G KC2019 03 03.20684 13 01 38.66 -14 58 52.6          18.1 VqEE035X31
     K19E00G KC2019 03 03.20905 13 01 34.95 -14 59 28.6          17.6 VqEE035X31
     K19E00G KC2019 03 03.21140 13 01 31.04 -15 00 06.8          18.1 VqEE035X31
     K19E00G KC2019 03 03.46779312 54 38.53 -16 07 29.9          18.8 GVEE035474
     K19E00G KC2019 03 03.46890312 54 36.76 -16 07 47.2          18.2 GVEE035474
     K19E00G KC2019 03 03.47001312 54 34.94 -16 08 04.9          18.2 GVEE035474
     K19E00G KC2019 03 03.47112412 54 33.13 -16 08 21.9          18.4 GVEE035474
     K19E00G KC2019 03 03.65336 12 49 38.38 -16 55 24.1          18.0 VqEE035E23
     K19E00G KC2019 03 03.66089 12 49 26.11 -16 57 17.6          18.3 VqEE035E23
     K19E00G KC2019 03 03.66841 12 49 13.89 -16 59 11.0          18.2 VqEE035E23
 
Observer details:
203 GiaGa Observatory.  Observers S. Foglia, G. Galli.  Measurer G. Galli.
    0.36-m f/5.76 Schmidt-Cassegrain + CCD.
204 Schiaparelli Observatory.  Observer L. Buzzi.  0.84-m f/3.5 reflector +
    CCD.
474 Mount John Observatory, Lake Tekapo.  Observers A. C. Gilmore,
    P. M. Kilmartin.  Measurer P. M. Kilmartin.  1.0-m f/7.7 reflector + CCD.
595 Farra dIsonzo.  Observers S. Aschi, E. Pettarin.  Measurer
    E. Pettarin.  0.61-m f/4.5 reflector + CCD.
703 Catalina Sky Survey.  Observer R. A. Kowalski.  Measurers B. M. Africano,
    E. J. Christensen, G. A. Farneth, D. C. Fuls, A. R. Gibbs, A. D. Grauer,
    H. Groeller, R. A. Kowalski, S. M. Larson, G. J. Leonard, T. A. Pruyne,
    R. L. Seaman, F. C. Shelly.  0.68-m Schmidt + 10K CCD.
C95 SATINO Remote Observatory, Haute Provence.  Observer J. Jahn.  0.60-m
    f/3.2 Newtonian reflector + CCD.
E23 Arcadia.  Observer A. Hidas.  0.35-m f/1.9 reflector + CCD.
I19 Observatorio El Gato Gris, Tanti.  Observer C. Colazo.  0.36-m f/10.70
    Schmidt-Cassegrain + CCD.
I52 Steward Observatory, Mt. Lemmon Station.  Observer R. A. Kowalski.
    Measurers B. M. Africano, E. J. Christensen, G. A. Farneth, D. C. Fuls,
    A. R. Gibbs, A. D. Grauer, H. Groeller, R. A. Kowalski, S. M. Larson,
    G. J. Leonard, T. A. Pruyne, R. L. Seaman, F. C. Shelly.  1.0-m reflector
    + CCD.
L01 Visnjan Observatory, Tican.  Observers K. Korlevic, F. Valentine.
    Measurer K. Korlevic.  1.0-m f/2.9 reflector + CCD.
T08 ATLAS-MLO, Mauna Loa.  Observers L. Denneau, J. Tonry, A. Heinze,
    H. Weiland, H. Flewelling.  Measurers L. Denneau, J. Tonry, A. Heinze,
    H. Weiland, H. Flewelling, B. Stalder, A. Fitzsimmons, D. Young,
    N. Erasmus.  0.5-m reflector + CCD.
X31 Galileo Galilei Observatory, Oro Verde.  Observer C. Fornari.  0.35-m
    f/11 Schmidt-Cassegrain + CCD.
 
Orbital elements:
2019 EG                                                  Earth MOID = 0.0449 AU
Epoch 2019 Apr. 27.0 TT = JDT 2458600.5                 MPC
M  80.31620              (2000.0)            P               Q
n   0.67978427     Peri.   94.11333     +0.16236259     -0.97436265
a   1.2810182      Node   343.78213     +0.52653460     +0.21904028
e   0.4002241      Incl.   33.89253     +0.83450566     +0.05136904
P   1.45           H   22.2           G   0.15           U   7
Residuals in seconds of arc
190301 703  0.4-  0.3-    190302 595  0.1-  0.2-    190302 T08  0.1+  0.0
190301 703  0.1+  0.2+    190302 C95  0.1-  0.2-    190302 T08  0.7-  0.1+
190301 703  0.2-  0.1-    190302 595  0.2-  0.1+    190302 T08  0.2-  0.4-
190301 703  2.4+  0.8+    190302 204  0.0   0.0     190302 T08  0.0   0.4+
190301 I52 (3.0+  1.7+)   190302 204  0.0   0.2+    190302 474  0.3-  0.6-
190301 I52 (3.0+  2.9+)   190302 204  0.1+  0.2+    190302 474  0.6+  0.4-
190301 I52  0.5-  0.3-    190302 L01  0.1+  0.2+    190302 474  0.2+  0.3-
190301 I52  0.4-  0.3-    190302 L01  0.1+  0.3+    190303 X31  0.2+  0.4+
190301 474  0.1-  0.1-    190302 L01  0.1+  0.2+    190303 X31  0.1-  0.3+
190301 474  0.4-  0.2-    190302 L01  0.0   0.1-    190303 X31  0.1+  0.3+
190301 474  0.4-  0.1-    190302 L01  0.1+  0.1+    190303 474  0.2-  0.0
190301 474  0.3-  0.1+    190302 I19  0.3+  0.2+    190303 474  0.3+  0.1+
190302 203  0.1+  0.5-    190302 L01  0.0   0.1+    190303 474  0.1+  0.2-
190302 203  0.4-  0.8-    190302 I19  0.6+  0.2+    190303 474  0.1+  0.2+
190302 203  0.3+  0.1+    190302 L01  0.0   0.1-    190303 E23  0.0   0.3-
190302 C95  0.1+  0.1-    190302 L01  0.1-  0.1+    190303 E23  0.3-  0.1-
190302 C95  0.5-  0.6+    190302 I19  0.3+  0.2+    190303 E23  0.1-  0.1-
190302 595  0.2-  0.1-    190302 L01  0.2-  0.0
190302 C95  0.0   0.0     190302 L01  0.2+  0.0

Ephemeris:
2019 EG                  a,e,i = 1.28, 0.40, 34                  q = 0.7683
Date    TT    R. A. (2000) Decl.     Delta      r     Elong.  Phase     V
2019 02 02    18 56 24.7 +34 45 19   0.3042  0.8716    59.5   102.9    23.1
...
2019 02 17    17 42 00.4 +30 38 07   0.1529  0.9605    75.2    95.9    21.5
...
2019 02 25    15 47 19.4 +15 26 41   0.08579 1.0122   102.8    72.5    19.4
...
2019 03 03    13 07 16.6 -14 02 33   0.07698 1.0518   140.5    36.8    18.2
2019 03 04    12 40 35.5 -18 20 23   0.08127 1.0584   144.2    33.3    18.3
2019 03 05    12 15 48.5 -21 55 41   0.08690 1.0650   146.2    31.2    18.4
...
2019 03 11    10 33 26.9 -32 12 59   0.1376  1.1048   141.9    33.7    19.5
...
2019 03 19    09 36 21.6 -34 37 15   0.2230  1.1575   132.4    39.4    20.8
...
2019 04 03    09 06 57.4 -34 08 03   0.3964  1.2533   121.5    42.8    22.3

A. U. Tomatic                (C) Copyright 2019 MPC           M.P.E.C. 2019-E35



More information about the Iaude mailing list